Regional Weather Roundup
Issued by NWS

Home | Current Version | Previous Version | Graphics & Text | Print | Product List | Glossary On
Versions: 1 2 3 4 5 6 7 8 9 10 11 12 13 14 15 16 17 18 19 20 21 22 23 24 25 26 27 28 29 30 31 32 33 34 35 36 37 38 39 40 41 42 43 44 45 46 47 48 49 50
000
ASUS43 KBIS 270710
RWRND

NORTH DAKOTA REGIONAL WEATHER ROUNDUP
NATIONAL WEATHER SERVICE BISMARCK ND
200 AM CDT THU APR 27 2017

NOTE: "FAIR" INDICATES FEW OR NO CLOUDS BELOW 12,000 FEET WITH NO
SIGNIFICANT WEATHER AND/OR OBSTRUCTIONS TO VISIBILITY.


NDZ001>003-009>011-017-270800-
NORTHWEST NORTH DAKOTA

CITY           SKY/WX    TMP DP  RH WIND       PRES   REMARKS
WILLISTON      FAIR      33  25  72 E9        29.76S
MINOT          FAIR      25  21  85 N5        29.79S WCI  19
MINOT AFB      CLEAR     29  23  78 NE5       29.79S
$$

NDZ018>021-031>035-040>046-270800-
SOUTHWEST NORTH DAKOTA

CITY           SKY/WX    TMP DP  RH WIND       PRES   REMARKS
BISMARCK       CLOUDY    36  27  69 N6        29.77S
DICKINSON      FAIR      25  22  88 SE9       29.72S WCI  15
GARRISON         N/A     25  20  81 NE5       29.77S WCI  19
HETTINGER ARPT CLEAR     27  23  85 E7        29.73S WCI  19
$$

NDZ004>008-012>016-024-026-027-054-270800-
NORTHEAST NORTH DAKOTA

CITY           SKY/WX    TMP DP  RH WIND       PRES   REMARKS
GRAND FORKS    FLURRIES  30  27  88 NE18      29.75S WCI  18
GRND FRKS AFB  MIX PCPN  28  27  93 NE13      29.75S WCI  18
DEVILS LAKE    FAIR      31  24  75 N7        29.76S
$$

NDZ022-023-025-028>030-036>039-047>053-270800-
SOUTHEAST NORTH DAKOTA

CITY           SKY/WX    TMP DP  RH WIND       PRES   REMARKS
FARGO          MIX PCPN  28  25  88 N16       29.70F WCI  16
JAMESTOWN      MOCLDY    29  25  85 N10       29.73S WCI  20
$$




USA.gov is the U.S. government's official web portal to all federal, state and local government web resources and services.